Simultaneous Nadir Overpasses (SNOs) Predictions

Prediction of SNOs between LANDSAT-8 and NOAA-19 Satellite Orbit:

Table of predicted SNOs for the next 14.0 days since TLE Epoch: 12/12/2020
Index Date (LANDSAT-8) Time (LANDSAT-8) Lat,Lon (LANDSAT-8) SZA (LANDSAT-8 ) Date (NOAA-19) Time (NOAA-19) Lat,Lon (NOAA-19) SZA (NOAA-19 ) Distance(km) Time Diff (sec)
1 12/12/2020 04:51:40 80.10, 135.53 104.41 12/12/2020 04:51:10 80.12, 135.41 104.41 3.45 30
2 12/12/2020 05:41:07 -80.10, -56.83 75.60 12/12/2020 05:42:11 -80.08, -56.78 75.58 2.14 64
3 12/14/2020 10:25:24 -80.11,-127.80 75.46 12/14/2020 10:24:26 -80.12,-127.82 75.47 1.33 58
4 12/14/2020 11:14:50 80.11, 39.85 104.55 12/14/2020 11:15:23 80.10, 39.80 104.54 1.91 33
5 12/16/2020 16:48:34 -80.12, 136.52 75.36 12/16/2020 16:48:39 -80.11, 136.39 75.38 2.85 5
6 12/18/2020 22:22:17 80.13,-126.87 104.69 12/18/2020 22:21:51 80.10,-126.74 104.67 3.59 26
7 12/18/2020 23:11:45 -80.10, 40.52 75.36 12/18/2020 23:12:52 -80.10, 40.58 75.33 1.26 67
8 12/21/2020 03:56:01 -80.14, -30.21 75.29 12/21/2020 03:55:06 -80.12, -30.21 75.33 1.90 55
9 12/21/2020 04:45:28 80.10, 137.09 104.65 12/21/2020 04:46:05 80.11, 137.28 104.68 3.70 37
10 12/23/2020 10:19:12 -80.11,-126.26 75.38 12/23/2020 10:19:19 -80.11,-126.07 75.36 3.74 7
11 12/25/2020 15:52:54 80.14, -29.46 104.59 12/25/2020 15:52:33 80.12, -29.38 104.58 2.34 21



Historial Predications of SNOs between LANDSAT-8 and NOAA-19
